Regional Weather Roundup
Issued by NWS Glasgow, MT

Home | Current Version | Previous Version | Text Only | Print | Product List | Glossary On
Versions: 1 2 3 4 5 6 7 8 9 10 11 12 13 14 15 16 17 18 19 20 21 22 23 24 25 26 27 28 29 30 31 32 33 34 35 36 37 38 39 40 41 42 43 44 45 46 47 48 49 50
000
ASUS45 KGGW 280115
RWRGGW
HOURLY WEATHER ROUNDUP FOR NORTHEAST MONTANA
NATIONAL WEATHER SERVICE GLASGOW MONTANA
700 PM MDT WED AUG 27 2014

NOTE: "FAIR" INDICATES FEW OR NO CLOUDS BELOW 12,000 FEET WITH NO
SIGNIFICANT WEATHER AND/OR OBSTRUCTIONS TO VISISBILITY.

NORTHEAST MONTANA


CITY           SKY/WX    TMP DP  RH WIND       PRES   REMARKS
GLASGOW        CLEAR     82  52  35 W6        29.91S
PLENTYWOOD       N/A     81  51  35 S10         N/A
WOLF POINT     CLEAR     83  54  36 W7        29.90F
JORDAN           N/A     83  52  34 NW6       29.94S
WINNETT          N/A     83  46  27 N5          N/A
SIDNEY         CLEAR     79  55  44 S9        29.96S
GLENDIVE       PTCLDY    79  55  44 S7        29.98S
MALTA            N/A     86  53  32 SW3         N/A
SCOBEY           N/A     82  50  32 SW5       29.92S

FORT PECK REPORTS


CITY           SKY/WX    TMP DP  RH WIND       PRES   REMARKS
FORT PECK        N/A     83  48  29 SW10        N/A
THE PINES        N/A     85  46  25 W3          N/A

SOUTHEAST MONTANA


CITY           SKY/WX    TMP DP  RH WIND       PRES   REMARKS
BILLINGS       PTCLDY    84  42  22 N9        30.01S
MILES CITY     PTCLDY    83  51  33 S5        29.96F
BAKER          MOCLDY    76  57  51 E12G18    30.02F
LIVINGSTON     SUNNY     80  39  23 NW6       30.09R

CENTRAL MONTANA


CITY           SKY/WX    TMP DP  RH WIND       PRES   REMARKS
HAVRE          MOSUNNY   86  45  23 NW7       29.90S
LEWISTOWN      SUNNY     79  45  29 NW5       30.05S
GREAT FALLS    SUNNY     82  41  23 W6        30.01S
CUT BANK       SUNNY     79  44  28 W18       30.01S
HELENA         SUNNY     83  43  24 W12       30.03S
BUTTE          SUNNY     76  39  26 NW9       30.17S
BOZEMAN        SUNNY     79  42  26 CALM      30.09F

WESTERN MONTANA


CITY           SKY/WX    TMP DP  RH WIND       PRES   REMARKS
MISSOULA       SUNNY     83  46  27 S7        30.02F
KALISPELL      NOT AVBL

NORTH DAKOTA


CITY           SKY/WX    TMP DP  RH WIND       PRES   REMARKS
WILLISTON      CLEAR     80  53  39 SE8       29.95F
DICKINSON      PTCLDY    70  57  63 SE8       30.01F
MINOT          CLEAR     73  56  54 S9        29.99F
BISMARCK       CLEAR     70  61  73 S8        30.04S

SOUTHERN SASKATCHEWAN


CITY           SKY/WX    TMP DP  RH WIND       PRES   REMARKS
REGINA         CLEAR     77  64  65 S5        29.87S
ESTEVAN        PTCLDY    73  59  60 SE7       29.94F
SWIFT CURRENT  CLEAR     81  48  32 W9        29.86S




USA.gov is the U.S. government's official web portal to all federal, state and local government web resources and services.